Temp
-8 -8 -9 -9 -9 -9 -9 -10 -10 -10 -10 -12 -12 -13 -13 -13 -13 -13 -13 -13 -12 -11 -11 -11 -11 -10 -10 -9 -9 -9 -9 -8 -9 -8 -8 -9 -9 -9 -9 -9 -8 -8 -8 -7 -7
-8 -9 -9 -9 -9 -9 -10 -10 -10 -10 -11 -13 -13 -13 -13 -14 -14 -13 -15 -14 -12 -12 -12 -12 -12 -11 -11 -10 -9 -9 -8 -9 -9 -9 -9 -10 -9 -9 -9 -9 -9 -8 -8 -7 -7
-9 -9 -9 -9 -9 -9 -10 -10 -10 -11 -12 -14 -14 -13 -13 -14 -13 -13 -13 -14 -13 -12 -12 -13 -13 -12 -11 -10 -9 -9 -8 -9 -9 -10 -9 -10 -9 -9 -9 -9 -9 -9 -8 -8 -7
-9 -9 -9 -10 -10 -10 -10 -10 -11 -12 -13 -14 -14 -14 -14 -14 -14 -14 -14 -14 -13 -13 -13 -13 -13 -12 -11 -11 -10 -9 -9 -10 -10 -10 -10 -10 -10 -9 -9 -9 -9 -9 -9 -8 -8
-9 -9 -10 -10 -10 -10 -10 -11 -12 -13 -14 -14 -14 -14 -14 -15 -15 -14 -14 -14 -14 -14 -13 -13 -13 -12 -12 -11 -10 -10 -9 -10 -10 -10 -10 -10 -11 -10 -9 -9 -9 -9 -9 -9 -9
-10 -10 -10 -10 -10 -11 -11 -11 -12 -13 -14 -15 -15 -15 -15 -16 -15 -15 -15 -15 -14 -15 -15 -14 -14 -13 -13 -12 -11 -10 -10 -10 -10 -10 -11 -10 -11 -11 -10 -10 -9 -9 -9 -9 -9
-10 -11 -11 -11 -11 -11 -11 -12 -13 -14 -14 -15 -15 -15 -15 -16 -15 -16 -15 -15 -16 -16 -15 -16 -15 -14 -13 -13 -12 -11 -11 -11 -10 -10 -11 -11 -10 -10 -11 -11 -10 -9 -9 -9 -9
-11 -11 -11 -11 -11 -12 -12 -13 -13 -14 -15 -16 -15 -15 -16 -15 -16 -17 -16 -16 -17 -16 -16 -16 -15 -15 -14 -13 -13 -12 -11 -11 -11 -10 -10 -11 -10 -10 -11 -11 -11 -11 -10 -10 -10
-11 -11 -11 -11 -12 -12 -13 -13 -14 -15 -16 -16 -16 -16 -16 -16 -17 -17 -17 -18 -18 -17 -17 -16 -15 -14 -14 -13 -13 -12 -11 -10 -11 -10 -10 -10 -11 -10 -10 -10 -10 -11 -11 -10 -10
-12 -12 -12 -12 -12 -12 -13 -14 -15 -16 -16 -16 -16 -16 -16 -16 -17 -18 -17 -18 -18 -17 -17 -16 -15 -13 -13 -13 -11 -10 -10 -10 -11 -10 -10 -10 -10 -11 -11 -11 -11 -10 -10 -10 -10
-12 -12 -12 -12 -13 -13 -14 -15 -16 -17 -17 -17 -16 -16 -16 -16 -17 -17 -18 -17 -17 -17 -16 -16 -14 -12 -12 -12 -12 -11 -11 -11 -11 -11 -11 -10 -10 -11 -11 -11 -11 -11 -10 -11 -11
-12 -12 -12 -13 -14 -15 -16 -17 -17 -17 -17 -17 -17 -17 -17 -17 -17 -16 -16 -16 -16 -16 -16 -16 -15 -14 -14 -13 -12 -12 -11 -12 -12 -12 -11 -11 -10 -11 -12 -11 -11 -11 -11 -10 -10
-12 -12 -12 -13 -15 -16 -17 -18 -19 -18 -18 -18 -17 -17 -17 -17 -17 -17 -17 -16 -17 -16 -16 -15 -15 -14 -14 -13 -13 -12 -12 -12 -12 -12 -12 -12 -11 -10 -11 -11 -10 -10 -10 -11 -11
-12 -12 -12 -13 -14 -15 -18 -20 -20 -20 -19 -19 -18 -17 -17 -17 -17 -18 -17 -17 -16 -16 -16 -16 -16 -15 -14 -14 -13 -12 -12 -12 -12 -13 -12 -12 -11 -10 -10 -10 -11 -10 -10 -10 -10
-13 -13 -13 -14 -14 -17 -20 -21 -20 -20 -19 -19 -18 -17 -18 -17 -17 -16 -17 -17 -16 -16 -15 -16 -15 -15 -14 -13 -13 -13 -13 -13 -13 -13 -13 -12 -11 -10 -11 -10 -10 -11 -11 -11 -11
-13 -13 -13 -14 -14 -18 -20 -21 -21 -20 -19 -18 -18 -17 -18 -17 -17 -17 -17 -17 -17 -16 -17 -17 -17 -16 -16 -15 -15 -16 -14 -14 -14 -13 -12 -12 -12 -10 -10 -10 -10 -10 -11 -12 -12
-13 -13 -13 -14 -16 -19 -20 -20 -20 -20 -20 -17 -17 -18 -18 -16 -17 -17 -16 -17 -16 -16 -16 -16 -16 -16 -15 -15 -14 -14 -14 -13 -14 -12 -11 -13 -13 -10 -10 -11 -10 -10 -11 -11 -12
-13 -13 -13 -14 -18 -19 -19 -20 -21 -21 -20 -18 -18 -18 -17 -17 -17 -17 -17 -16 -16 -16 -16 -16 -15 -14 -14 -14 -14 -13 -13 -13 -12 -12 -13 -14 -12 -11 -11 -11 -12 -12 -13 -12 -11
-13 -13 -14 -15 -19 -18 -19 -20 -19 -19 -19 -18 -17 -18 -17 -17 -17 -17 -17 -16 -16 -16 -16 -15 -15 -15 -15 -14 -14 -14 -13 -15 -15 -15 -15 -13 -12 -12 -12 -12 -13 -13 -13 -13 -12
-13 -13 -14 -17 -19 -19 -19 -19 -19 -19 -18 -18 -18 -17 -17 -17 -17 -16 -16 -16 -16 -16 -15 -15 -15 -15 -15 -14 -14 -15 -16 -15 -16 -18 -17 -16 -15 -15 -14 -14 -14 -14 -14 -14 -13
-13 -14 -14 -18 -19 -18 -19 -19 -19 -18 -18 -18 -17 -18 -17 -16 -16 -16 -16 -16 -16 -16 -16 -16 -16 -16 -15 -15 -15 -15 -16 -17 -18 -18 -17 -17 -16 -16 -16 -16 -15 -15 -15 -15 -14
-13 -14 -14 -19 -19 -18 -18 -19 -19 -18 -18 -17 -17 -18 -17 -17 -16 -16 -16 -16 -16 -16 -16 -16 -17 -16 -16 -17 -17 -17 -17 -17 -18 -17 -17 -17 -16 -16 -16 -15 -15 -15 -15 -15 -15
-13 -14 -15 -18 -19 -18 -18 -18 -18 -18 -18 -17 -17 -17 -17 -16 -16 -16 -17 -17 -17 -17 -16 -16 -16 -17 -17 -17 -18 -18 -18 -18 -18 -17 -17 -17 -16 -16 -15 -15 -15 -14 -14 -15 -15
-14 -14 -15 -18 -19 -19 -18 -18 -18 -18 -18 -17 -17 -17 -17 -16 -16 -17 -17 -17 -17 -17 -17 -17 -16 -17 -17 -17 -17 -17 -17 -17 -18 -18 -17 -16 -16 -16 -15 -15 -15 -14 -14 -15 -15
-14 -15 -16 -18 -19 -20 -19 -18 -18 -18 -18 -18 -17 -17 -17 -17 -16 -17 -17 -17 -17 -17 -17 -17 -17 -17 -17 -17 -17 -17 -18 -18 -18 -18 -17 -17 -17 -16 -15 -15 -15 -15 -14 -15 -15
-15 -15 -18 -19 -19 -20 -19 -18 -18 -17 -18 -18 -17 -17 -17 -17 -17 -17 -17 -17 -17 -17 -17 -17 -17 -17 -17 -17 -17 -17 -17 -17 -17 -17 -17 -17 -16 -16 -16 -16 -15 -14 -15 -15 -15
-15 -16 -19 -20 -20 -20 -19 -18 -18 -17 -18 -18 -17 -17 -17 -16 -17 -17 -17 -17 -16 -16 -16 -16 -17 -17 -17 -17 -17 -17 -17 -17 -17 -17 -16 -16 -16 -16 -16 -16 -16 -15 -15 -15 -15
Height
5779 5774 5769 5763 5758 5752 5746 5740 5733 5727 5720 5713 5709 5704 5700 5696 5693 5693 5703 5705 5711 5720 5729 5741 5751 5761 5770 5779 5789 5799 5806 5821 5834 5842 5849 5848 5853 5858 5863 5867 5871 5877 5883 5887 5890
5772 5767 5761 5755 5749 5743 5737 5730 5723 5716 5708 5701 5696 5691 5685 5680 5678 5680 5681 5687 5697 5708 5718 5729 5739 5749 5760 5769 5778 5789 5800 5816 5827 5835 5840 5841 5845 5853 5859 5862 5866 5869 5879 5882 5886
5765 5758 5753 5747 5741 5734 5728 5720 5713 5704 5696 5689 5684 5678 5672 5668 5664 5664 5669 5674 5683 5698 5706 5717 5727 5739 5751 5760 5771 5782 5794 5809 5817 5826 5833 5834 5837 5846 5852 5858 5861 5865 5873 5878 5882
5757 5750 5744 5737 5731 5725 5718 5711 5702 5694 5686 5680 5674 5667 5662 5658 5655 5653 5656 5664 5674 5686 5695 5707 5718 5729 5742 5752 5762 5773 5786 5799 5806 5815 5824 5828 5831 5838 5845 5850 5856 5861 5866 5874 5878
5749 5742 5735 5729 5722 5715 5707 5700 5690 5683 5676 5669 5664 5658 5653 5650 5646 5644 5649 5656 5665 5677 5689 5700 5712 5723 5735 5745 5753 5765 5778 5788 5798 5807 5816 5820 5824 5831 5836 5843 5850 5856 5862 5868 5873
5741 5734 5727 5720 5713 5706 5697 5689 5679 5672 5665 5659 5654 5650 5646 5643 5641 5642 5644 5650 5658 5669 5678 5691 5704 5716 5726 5735 5746 5757 5769 5781 5791 5799 5807 5814 5818 5824 5830 5835 5843 5849 5855 5861 5868
5733 5725 5718 5711 5703 5695 5686 5678 5669 5661 5655 5650 5645 5641 5639 5634 5636 5638 5640 5646 5653 5663 5672 5683 5695 5705 5718 5727 5737 5749 5762 5773 5783 5792 5801 5808 5812 5821 5826 5829 5834 5842 5847 5853 5859
5725 5717 5709 5701 5693 5684 5675 5667 5659 5650 5643 5638 5635 5633 5631 5630 5631 5634 5637 5642 5648 5657 5665 5675 5688 5699 5710 5720 5729 5740 5752 5766 5777 5784 5792 5802 5812 5816 5821 5824 5828 5833 5838 5843 5851
5716 5709 5700 5691 5682 5672 5664 5654 5646 5639 5634 5630 5627 5625 5623 5622 5625 5626 5632 5638 5644 5652 5661 5669 5681 5692 5703 5713 5723 5731 5749 5762 5771 5777 5784 5796 5804 5808 5813 5819 5823 5826 5831 5837 5843
5709 5700 5691 5680 5670 5659 5650 5640 5632 5627 5623 5620 5619 5618 5615 5615 5618 5622 5625 5634 5641 5649 5658 5668 5677 5687 5699 5708 5718 5731 5745 5756 5767 5772 5776 5788 5795 5798 5805 5812 5816 5820 5823 5831 5838
5701 5691 5680 5668 5656 5643 5634 5625 5619 5615 5612 5610 5611 5609 5609 5610 5613 5617 5624 5630 5636 5645 5656 5666 5676 5688 5699 5707 5716 5726 5737 5748 5756 5762 5768 5779 5785 5791 5796 5802 5808 5812 5817 5824 5831
5692 5682 5670 5656 5642 5627 5614 5606 5603 5601 5600 5596 5598 5601 5604 5606 5608 5611 5619 5627 5635 5643 5652 5662 5673 5686 5696 5703 5711 5718 5727 5740 5750 5755 5762 5768 5776 5786 5787 5796 5803 5808 5810 5817 5822
5684 5672 5659 5645 5628 5611 5592 5588 5584 5581 5582 5583 5586 5592 5595 5600 5604 5610 5618 5628 5635 5643 5652 5661 5672 5680 5689 5699 5708 5715 5723 5733 5743 5748 5753 5760 5765 5776 5786 5789 5795 5803 5808 5809 5812
5675 5662 5648 5632 5615 5591 5575 5570 5566 5567 5568 5572 5577 5583 5589 5594 5602 5609 5618 5627 5632 5641 5650 5659 5667 5675 5685 5693 5703 5711 5719 5727 5736 5741 5748 5752 5761 5769 5779 5786 5790 5797 5801 5804 5806
5666 5651 5635 5612 5597 5575 5563 5557 5559 5562 5565 5570 5573 5578 5585 5594 5601 5609 5618 5626 5633 5642 5651 5661 5666 5674 5682 5692 5698 5706 5712 5720 5727 5733 5739 5745 5752 5762 5768 5779 5786 5790 5793 5795 5797
5657 5642 5625 5604 5577 5562 5555 5553 5555 5561 5565 5569 5574 5578 5584 5589 5599 5607 5616 5625 5634 5640 5650 5656 5662 5670 5681 5686 5691 5697 5705 5712 5719 5725 5734 5742 5745 5752 5762 5772 5774 5781 5787 5790 5789
5649 5634 5614 5591 5571 5560 5555 5553 5556 5559 5564 5571 5575 5580 5584 5591 5599 5606 5615 5620 5629 5637 5646 5652 5659 5668 5675 5681 5688 5694 5700 5707 5714 5721 5730 5730 5735 5748 5754 5758 5766 5771 5776 5781 5783
5642 5624 5604 5583 5568 5563 5559 5558 5559 5561 5563 5568 5575 5580 5587 5593 5601 5609 5617 5624 5633 5641 5646 5652 5660 5665 5672 5679 5686 5690 5694 5700 5706 5713 5716 5722 5729 5739 5745 5750 5759 5763 5765 5770 5777
5636 5618 5598 5578 5571 5567 5563 5562 5564 5567 5569 5571 5576 5581 5587 5594 5604 5609 5619 5628 5636 5641 5648 5655 5662 5668 5675 5680 5685 5689 5693 5699 5702 5707 5711 5718 5725 5729 5736 5743 5748 5752 5758 5764 5769
5632 5614 5594 5576 5573 5571 5568 5568 5570 5573 5574 5577 5578 5583 5590 5596 5604 5612 5619 5628 5636 5643 5649 5657 5663 5669 5673 5677 5682 5686 5692 5694 5696 5703 5710 5715 5720 5724 5730 5736 5740 5746 5751 5755 5761
5627 5610 5591 5575 5576 5575 5572 5573 5574 5575 5577 5579 5581 5584 5591 5597 5606 5614 5624 5631 5637 5643 5649 5656 5662 5666 5670 5675 5680 5684 5687 5693 5700 5706 5711 5716 5720 5723 5727 5731 5736 5742 5746 5749 5754
5624 5608 5588 5574 5576 5577 5576 5575 5577 5578 5580 5581 5583 5587 5595 5603 5610 5615 5625 5632 5638 5646 5652 5657 5661 5666 5673 5677 5681 5686 5690 5694 5698 5705 5710 5713 5718 5720 5724 5729 5732 5736 5741 5744 5748
5621 5605 5587 5573 5575 5577 5578 5578 5580 5581 5582 5584 5586 5590 5598 5605 5612 5620 5625 5632 5638 5645 5650 5656 5661 5665 5671 5677 5680 5684 5689 5694 5700 5704 5708 5711 5717 5718 5721 5724 5727 5731 5735 5739 5743
5621 5602 5586 5574 5574 5577 5579 5581 5583 5584 5584 5586 5588 5593 5600 5607 5615 5622 5625 5631 5638 5645 5651 5657 5661 5666 5671 5677 5680 5684 5689 5694 5698 5702 5706 5710 5713 5715 5718 5721 5723 5725 5727 5731 5734
5616 5600 5585 5577 5576 5579 5581 5585 5586 5589 5589 5590 5591 5596 5601 5609 5616 5621 5628 5632 5637 5641 5647 5655 5661 5666 5670 5675 5679 5684 5688 5692 5696 5700 5703 5708 5710 5712 5714 5715 5714 5714 5716 5722 5728
5618 5605 5589 5581 5577 5581 5585 5587 5589 5591 5592 5593 5595 5598 5603 5609 5616 5620 5626 5631 5636 5641 5646 5652 5659 5665 5670 5674 5678 5683 5687 5691 5695 5698 5701 5705 5708 5710 5711 5710 5710 5707 5713 5720 5726
5614 5601 5590 5584 5581 5584 5586 5588 5592 5592 5594 5595 5597 5599 5605 5610 5616 5620 5626 5631 5637 5643 5648 5652 5658 5664 5669 5673 5677 5681 5684 5689 5693 5696 5699 5702 5705 5706 5707 5708 5709 5710 5713 5717 5722
Wind_Speed
36 37 39 40 40 39 42 43 41 39 44 50 45 42 46 51 48 50 51 56 61 62 64 62 63 65 66 65 62 63 65 62 52 50 48 51 53 52 44 42 43 40 33 30 25
39 40 40 39 39 42 42 41 41 45 46 49 40 42 45 42 40 40 47 53 60 61 63 62 63 66 67 66 64 63 64 58 57 52 49 49 53 55 52 44 42 45 38 35 36
39 40 40 39 40 42 41 42 45 46 47 46 40 40 42 37 35 37 42 48 57 58 62 63 64 66 67 67 65 62 63 59 61 57 50 50 52 52 57 55 42 42 35 33 35
42 42 41 39 38 41 41 44 47 46 48 47 37 39 38 33 29 31 40 46 53 56 61 61 63 65 67 68 66 63 59 57 60 65 55 52 50 51 55 60 56 44 40 36 35
44 43 42 39 39 40 42 46 47 46 47 44 36 38 34 30 26 28 36 43 50 53 57 58 60 63 64 67 67 64 59 56 57 61 65 56 50 50 53 59 61 54 50 39 38
46 44 40 40 41 42 46 47 46 46 44 40 33 35 31 28 26 21 33 39 46 51 55 56 58 60 63 64 65 64 59 55 53 62 64 62 54 48 53 51 56 55 52 53 44
47 42 40 40 40 44 48 46 44 46 44 40 32 33 28 30 25 23 30 36 42 50 52 53 56 60 62 62 62 63 59 55 52 55 61 63 63 55 48 46 48 52 51 48 51
47 43 42 44 43 47 51 49 44 47 43 36 28 31 23 25 17 23 29 35 39 48 51 54 55 57 58 60 60 60 59 55 51 52 56 63 61 63 52 49 44 47 48 50 47
45 44 47 48 48 52 54 51 46 46 40 32 28 28 26 25 20 27 31 35 39 46 49 55 56 57 58 59 59 62 58 56 51 52 54 58 61 62 63 58 51 52 47 48 48
47 47 50 52 54 58 57 53 48 44 39 34 29 26 23 20 25 27 35 37 39 44 46 50 55 56 58 59 59 58 56 55 51 54 54 53 57 65 64 63 64 61 53 54 54
48 51 53 57 61 60 62 55 48 44 39 32 28 26 21 21 29 31 33 37 42 43 44 45 48 47 50 54 56 55 53 54 54 54 54 53 54 59 65 65 62 64 66 56 56
51 55 61 64 62 64 62 55 49 45 35 34 29 24 23 23 23 37 36 38 40 41 44 43 42 41 45 51 53 54 55 52 49 51 53 55 56 53 58 61 64 62 60 60 61
55 61 66 69 68 71 71 58 49 43 39 29 27 23 24 25 27 30 33 34 35 38 41 40 38 40 43 45 47 49 50 51 49 50 55 55 57 56 54 56 59 61 62 61 61
61 68 73 76 79 75 62 48 37 26 19 17 21 23 23 25 26 26 28 32 38 38 39 34 34 37 40 42 43 45 45 45 46 50 52 54 55 55 53 54 53 54 57 60 59
66 74 81 83 89 60 44 29 19 13 8 5 14 20 24 25 26 26 28 32 34 32 34 29 30 33 37 37 39 39 40 42 44 49 52 54 56 54 54 53 52 53 53 54 56
70 78 82 91 74 48 26 14 7 3 5 10 7 17 22 32 29 28 29 32 32 32 27 29 30 33 31 35 38 35 39 42 44 47 51 52 56 56 54 51 52 51 51 53 54
74 82 87 96 54 26 18 8 5 10 14 7 7 17 28 33 32 33 34 36 36 36 36 34 34 30 33 35 35 37 40 42 45 48 50 51 55 54 54 54 54 53 53 52 54
78 84 90 77 30 15 12 7 5 8 16 7 16 18 33 33 32 31 33 32 31 31 31 34 34 35 37 36 32 36 40 45 48 50 52 49 55 55 55 55 50 51 48 53 55
79 86 94 60 14 12 10 8 9 8 3 13 21 17 32 34 31 34 33 28 28 31 31 32 30 28 25 21 23 27 32 35 41 44 49 50 52 54 54 51 50 50 46 44 44
81 87 95 42 5 9 10 10 9 11 5 12 25 23 34 36 35 35 36 32 30 30 30 25 24 22 23 24 23 23 24 31 40 36 33 35 36 37 36 36 37 33 34 37 42
82 85 87 30 3 7 10 8 9 15 6 8 29 11 36 38 37 36 32 32 30 28 28 25 26 27 27 24 22 22 23 22 21 21 17 15 21 20 23 27 29 33 34 36 37
83 85 86 28 7 4 3 2 8 8 9 9 18 19 31 30 32 36 32 30 28 23 22 27 31 28 25 23 19 13 13 18 20 21 14 16 17 16 21 30 29 28 31 33 34
81 84 79 29 8 8 5 5 8 5 12 11 22 19 28 31 33 34 33 30 30 28 26 29 31 30 28 26 24 21 20 20 18 17 15 13 11 16 18 26 34 32 29 31 34
79 84 75 31 13 7 9 9 15 6 13 10 24 18 34 31 31 32 33 33 32 30 29 29 31 31 28 23 22 23 21 19 18 19 18 16 11 10 12 15 20 28 36 34 43
79 82 70 28 8 12 11 8 14 12 5 7 12 13 36 30 34 32 34 33 35 39 38 36 34 32 31 25 24 23 22 22 21 17 17 16 14 11 13 16 20 27 24 30 32
75 77 59 29 5 16 13 9 3 11 2 6 13 17 28 29 34 33 34 35 36 37 38 37 35 35 30 26 25 25 25 24 22 18 18 18 20 15 14 12 15 5 22 25 21
75 75 48 28 9 14 12 13 7 10 8 1 13 19 21 36 34 35 34 34 35 35 32 34 37 35 31 24 25 20 26 24 22 23 18 16 15 16 14 16 15 5 8 23 11
Wind_Direction
316 314 313 313 310 309 309 311 309 305 298 293 297 286 281 278 265 252 243 239 231 227 224 220 217 216 216 216 217 216 218 214 203 203 205 216 221 221 221 227 233 231 226 225 226
318 317 315 314 312 311 312 311 311 303 299 301 298 291 290 282 265 248 236 233 225 223 222 218 214 214 214 215 215 218 215 213 207 205 205 215 219 222 223 224 228 234 229 232 234
320 318 317 313 313 313 315 314 313 307 300 305 304 295 297 286 269 245 231 227 221 218 218 215 211 211 212 214 214 216 215 210 207 204 207 216 219 220 222 226 224 227 224 222 227
323 318 318 316 314 314 316 320 312 306 305 310 308 296 299 291 269 238 222 222 217 213 214 213 211 210 211 212 213 215 215 213 206 209 205 216 220 221 221 224 229 226 230 220 222
325 322 319 317 316 318 319 323 313 304 305 310 309 300 298 291 262 231 219 217 214 209 212 211 211 210 210 212 212 213 212 212 208 208 205 209 217 222 223 225 227 233 230 226 224
326 325 321 319 321 324 321 320 312 304 304 306 307 305 295 280 266 230 218 214 211 203 205 207 206 207 210 210 214 213 211 211 208 208 208 215 215 220 224 227 229 235 238 240 234
328 325 322 322 322 322 323 319 311 302 299 302 306 303 292 269 259 224 213 210 204 202 199 201 202 204 207 208 212 213 213 209 207 210 213 213 222 220 225 230 233 233 237 239 242
329 325 323 322 318 321 322 316 308 300 297 298 297 301 282 265 250 217 211 209 201 200 197 198 199 203 205 207 211 213 214 210 207 210 211 214 222 226 224 230 235 237 240 242 242
329 325 326 323 321 320 321 313 305 298 297 296 294 295 277 254 217 208 204 202 196 196 198 197 198 199 202 206 209 213 211 209 209 212 216 212 214 223 227 228 234 238 240 245 247
330 328 327 327 324 321 319 312 303 295 294 293 290 288 275 244 202 200 196 195 194 196 196 199 200 199 200 205 210 213 209 210 210 213 218 215 212 219 225 229 234 236 240 245 250
331 329 332 331 324 319 315 309 301 294 289 286 284 276 257 234 188 203 195 194 192 191 195 196 202 202 202 203 206 212 212 211 209 213 216 219 216 218 222 224 229 237 243 248 250
331 334 335 330 325 319 314 302 296 293 284 283 272 262 240 223 206 203 194 194 190 188 190 192 196 199 205 206 206 210 211 209 212 215 215 220 221 215 226 226 228 231 239 244 248
334 336 334 332 329 321 309 303 299 292 283 266 254 245 232 204 205 206 191 191 188 189 188 187 187 192 199 207 209 212 214 210 209 213 218 219 223 222 222 230 231 233 235 242 247
335 337 336 334 331 320 312 307 300 299 285 246 231 221 211 202 199 199 194 190 188 188 186 184 185 190 195 201 205 211 214 214 212 214 217 222 226 227 225 228 233 236 237 239 244
338 339 337 334 334 322 315 305 306 288 287 200 213 208 207 185 190 188 181 187 187 186 183 175 178 184 188 195 201 205 210 212 210 214 216 222 227 227 228 227 231 235 240 243 245
339 341 340 336 335 331 333 332 311 251 160 131 203 190 194 172 179 181 180 183 185 186 179 180 180 184 186 194 197 201 206 208 209 214 218 223 227 227 230 230 232 232 232 240 248
341 342 341 342 339 351 359 28 88 168 178 92 184 169 177 173 173 178 180 182 185 177 172 179 185 188 186 188 197 204 211 212 212 216 220 220 226 229 230 232 234 237 237 234 238
344 344 343 350 349 11 27 51 105 180 181 94 173 166 178 164 171 175 177 179 178 175 181 182 183 184 186 191 200 204 212 215 216 216 220 221 227 229 232 235 236 240 246 246 241
345 345 343 352 9 25 55 83 113 147 174 50 172 175 172 165 173 173 173 178 182 181 181 185 186 191 195 204 206 214 217 214 214 218 220 225 228 232 233 234 235 237 239 247 252
345 347 345 356 35 58 85 84 105 150 53 50 172 189 178 168 167 170 170 174 173 181 178 183 191 188 193 197 207 211 215 212 217 215 217 228 232 241 240 236 234 235 237 238 244
346 349 349 356 157 84 81 91 109 169 29 31 176 176 177 173 170 167 166 165 172 180 176 176 185 188 191 194 197 196 201 201 210 217 214 214 231 226 223 210 217 215 222 226 231
349 350 352 353 193 212 114 8 175 153 54 103 176 171 178 174 171 167 163 168 173 165 174 174 176 181 176 176 183 187 202 202 214 208 223 217 207 217 204 199 195 201 218 224 228
349 350 354 350 220 202 206 192 216 97 31 88 183 192 178 178 175 167 163 172 172 164 178 181 182 181 181 185 189 198 197 205 214 212 243 238 223 244 243 218 218 215 220 231 232
349 350 355 356 193 199 207 193 208 101 59 111 183 192 176 182 175 170 172 171 171 167 181 185 189 186 190 196 207 211 207 206 208 223 240 246 272 242 241 245 257 250 245 235 225
350 350 356 355 212 217 193 170 215 220 33 98 183 182 172 180 174 175 177 175 180 176 182 188 192 192 197 201 207 212 206 210 215 224 243 252 250 263 278 280 270 261 228 217 214
348 350 355 353 306 208 207 207 214 225 212 102 174 185 182 179 178 177 180 186 188 188 185 188 193 198 197 202 211 212 215 223 230 232 253 250 242 251 278 312 317 153 203 216 233
348 349 352 354 325 195 232 243 248 218 239 177 182 185 195 181 183 183 188 190 192 197 201 190 192 198 202 213 210 223 230 228 234 236 259 259 243 255 275 297 307 140 176 219 255